Ischia Jet — IOBI — position and weather

sailwx.info

Track history (hours):
 
Tides and Currents Weather Stations Pressure Air Temp Water Temp Dewpoint Dewpoint Depression Visibility Wind Speed Wind Dir Waves Ship Positions

Ischia Jet

Last reported at 2014-Jul-28 07:33 UTC. Time now 2014-Jul-28 08:26 UTC.
Position N 40°36' E 014°17'.

Length 42 m; draft 1.2 m.

Type: Passenger vessel. MMSI: 247048700.

Date/timePositionNaut miles runAvg speedWind from/ knotsBaromVisibWave heightAir tempDewpointWater temp
2014-Jul-28 07:33N 40°36' E 014°17'10 0.6
2014-Jul-27 15:29N 40°46' E 014°18'1213.3
2014-Jul-27 14:34N 40°33' E 014°14'1 0.6
2014-Jul-27 13:34N 40°34' E 014°15'15 7.3
2014-Jul-27 11:30N 40°49' E 014°17'1516.4
2014-Jul-27 10:33N 40°33' E 014°14'1 1.2
2014-Jul-27 09:33N 40°35' E 014°14'1 1.2
2014-Jul-27 08:33N 40°33' E 014°14'8 7.5
2014-Jul-27 07:32N 40°38' E 014°23'0 0.4
2014-Jul-27 06:34N 40°38' E 014°22'6 5.8
2014-Jul-27 05:33N 40°42' E 014°29'0 0.0
2014-Jul-26 16:33N 40°42' E 014°28'1211.6
2014-Jul-26 15:33N 40°34' E 014°18'7 5.2
2014-Jul-26 14:12N 40°35' E 014°27'914.6
2014-Jul-26 13:33N 40°33' E 014°14'7 7.2
2014-Jul-26 12:33N 40°38' E 014°21'7 7.2
2014-Jul-26 11:33N 40°33' E 014°14'0 0.0
2014-Jul-26 10:33N 40°33' E 014°14'1 0.4
2014-Jul-26 08:04N 40°34' E 014°16'1 1.2
2014-Jul-26 07:30N 40°34' E 014°15'13 0.8
2014-Jul-25 15:12N 40°42' E 014°28'6 8.9
2014-Jul-25 14:33N 40°38' E 014°22'7 7.2
2014-Jul-25 13:33N 40°34' E 014°15'16 7.3
2014-Jul-25 11:23N 40°49' E 014°17'1619.2
2014-Jul-25 10:33N 40°33' E 014°14'1 1.0
2014-Jul-25 09:33N 40°34' E 014°14'1 1.0
2014-Jul-25 08:33N 40°33' E 014°14'8 7.6
2014-Jul-25 07:33N 40°38' E 014°23'0 0.1
2014-Jul-25 06:25N 40°38' E 014°22'3 3.0
2014-Jul-25 05:33N 40°37' E 014°19'8 7.3
2014-Jul-25 04:24N 40°42' E 014°29'6 0.5
2014-Jul-24 15:33N 40°38' E 014°23'7 6.8
2014-Jul-24 14:33N 40°34' E 014°15'1 0.9
2014-Jul-24 13:33N 40°33' E 014°14'2 2.0
2014-Jul-24 12:34N 40°35' E 014°15'1 0.9
2014-Jul-24 11:33N 40°35' E 014°14'1 0.6
2014-Jul-24 10:33N 40°35' E 014°14'1 0.4
2014-Jul-24 07:22N 40°33' E 014°15'8 9.5
2014-Jul-24 06:33N 40°38' E 014°23'6 5.0
2014-Jul-24 05:25N 40°42' E 014°29'0 0.0
2014-Jul-23 15:15N 40°42' E 014°28'6 8.4
2014-Jul-23 14:33N 40°38' E 014°22'8 7.7
2014-Jul-23 13:34N 40°33' E 014°14'0 0.0
2014-Jul-23 12:33N 40°33' E 014°14'4 4.1
2014-Jul-23 11:31N 40°38' E 014°15'12 5.6
2014-Jul-23 09:21N 40°50' E 014°17'1618.0
2014-Jul-23 08:27N 40°33' E 014°14'8 8.7
2014-Jul-23 07:33N 40°38' E 014°23'0 0.2
2014-Jul-23 06:32N 40°38' E 014°23'2 2.2
2014-Jul-23 05:34N 40°38' E 014°20'8 7.2
2014-Jul-23 04:30N 40°42' E 014°29'3 0.3
2014-Jul-22 16:33N 40°41' E 014°24'8 2.8
2014-Jul-22 13:31N 40°36' E 014°15'13 6.6
2014-Jul-22 11:28N 40°50' E 014°17'1617.7
2014-Jul-22 10:33N 40°33' E 014°14'4 4.4
2014-Jul-22 09:33N 40°34' E 014°20'8 7.4
2014-Jul-22 08:30N 40°35' E 014°30'1212.4
2014-Jul-22 07:33N 40°34' E 014°15'13 8.9
2014-Jul-22 06:06N 40°42' E 014°29'0 0.0
2014-Jul-21 17:33N 40°42' E 014°28'1110.7
2014-Jul-21 16:34N 40°48' E 014°17'1514.8
2014-Jul-21 15:33N 40°33' E 014°14'1511.1
2014-Jul-21 14:10N 40°49' E 014°17'1422.1
2014-Jul-21 13:33N 40°35' E 014°15'2 1.8
2014-Jul-21 12:33N 40°33' E 014°14'3 3.0
2014-Jul-21 11:33N 40°36' E 014°16'1311.0
2014-Jul-21 10:21N 40°49' E 014°17'1619.4
2014-Jul-21 09:32N 40°33' E 014°14'0 0.1
2014-Jul-21 08:33N 40°33' E 014°14'7 7.3
2014-Jul-21 07:33N 40°38' E 014°22'1 0.8
2014-Jul-21 06:33N 40°38' E 014°23'4 3.6
2014-Jul-21 05:33N 40°36' E 014°18'9 7.7
2014-Jul-21 04:20N 40°42' E 014°29'3 0.2
2014-Jul-20 16:34N 40°41' E 014°25'9 9.0
2014-Jul-20 15:33N 40°34' E 014°17'10 8.1
2014-Jul-20 14:22N 40°37' E 014°29'1214.7
2014-Jul-20 13:33N 40°33' E 014°14'7 7.1
2014-Jul-20 12:33N 40°38' E 014°21'7 7.1
2014-Jul-20 11:33N 40°33' E 014°14'0 0.0
2014-Jul-20 10:32N 40°33' E 014°14'2 0.8
2014-Jul-20 08:03N 40°34' E 014°17'2 3.7
2014-Jul-20 07:32N 40°33' E 014°14'1413.8
2014-Jul-20 06:33N 40°42' E 014°28'0 0.0
2014-Jul-19 15:10N 40°42' E 014°29'6 9.6
2014-Jul-19 14:33N 40°38' E 014°23'7 7.4
2014-Jul-19 13:33N 40°34' E 014°15'1712.7
2014-Jul-19 12:15N 40°50' E 014°15'0 0.4
2014-Jul-19 11:29N 40°50' E 014°16'1718.2
2014-Jul-19 10:33N 40°33' E 014°14'0 0.0
2014-Jul-19 09:32N 40°33' E 014°14'0 0.0
2014-Jul-19 08:33N 40°33' E 014°14'8 7.6
2014-Jul-19 07:33N 40°38' E 014°23'0 0.0
2014-Jul-19 06:33N 40°38' E 014°23'3 3.0
2014-Jul-19 05:33N 40°37' E 014°19'9 8.7
2014-Jul-19 04:33N 40°42' E 014°29'1 0.1
2014-Jul-18 16:33N 40°42' E 014°27'1211.6
2014-Jul-18 15:33N 40°34' E 014°16'1 0.6
2014-Jul-18 13:33N 40°33' E 014°15'1712.6
2014-Jul-18 12:13N 40°50' E 014°15'1 0.8
2014-Jul-18 11:29N 40°50' E 014°16'1718.1
2014-Jul-18 10:33N 40°33' E 014°14'5 1.9
2014-Jul-18 08:08N 40°34' E 014°20'  
Track history (hours):
 
Tides and Currents Weather Stations Pressure Air Temp Water Temp Dewpoint Dewpoint Depression Visibility Wind Speed Wind Dir Waves Ship Positions

Ischia Jet

Last reported at 2014-Jul-28 07:33 UTC. Time now 2014-Jul-28 08:26 UTC.
Position N 40°36' E 014°17'.

Length 42 m; draft 1.2 m.

Type: Passenger vessel. MMSI: 247048700.

Date/timePositionNaut miles runAvg speedWind from/ knotsBaromVisibWave heightAir tempDewpointWater temp
2014-Jul-28 07:33N 40°36' E 014°17'10 0.6
2014-Jul-27 15:29N 40°46' E 014°18'1213.3
2014-Jul-27 14:34N 40°33' E 014°14'1 0.6
2014-Jul-27 13:34N 40°34' E 014°15'15 7.3
2014-Jul-27 11:30N 40°49' E 014°17'1516.4
2014-Jul-27 10:33N 40°33' E 014°14'1 1.2
2014-Jul-27 09:33N 40°35' E 014°14'1 1.2
2014-Jul-27 08:33N 40°33' E 014°14'8 7.5
2014-Jul-27 07:32N 40°38' E 014°23'0 0.4
2014-Jul-27 06:34N 40°38' E 014°22'6 5.8
2014-Jul-27 05:33N 40°42' E 014°29'0 0.0
2014-Jul-26 16:33N 40°42' E 014°28'1211.6
2014-Jul-26 15:33N 40°34' E 014°18'7 5.2
2014-Jul-26 14:12N 40°35' E 014°27'914.6
2014-Jul-26 13:33N 40°33' E 014°14'7 7.2
2014-Jul-26 12:33N 40°38' E 014°21'7 7.2
2014-Jul-26 11:33N 40°33' E 014°14'0 0.0
2014-Jul-26 10:33N 40°33' E 014°14'1 0.4
2014-Jul-26 08:04N 40°34' E 014°16'1 1.2
2014-Jul-26 07:30N 40°34' E 014°15'13 0.8
2014-Jul-25 15:12N 40°42' E 014°28'6 8.9
2014-Jul-25 14:33N 40°38' E 014°22'7 7.2
2014-Jul-25 13:33N 40°34' E 014°15'16 7.3
2014-Jul-25 11:23N 40°49' E 014°17'1619.2
2014-Jul-25 10:33N 40°33' E 014°14'1 1.0
2014-Jul-25 09:33N 40°34' E 014°14'1 1.0
2014-Jul-25 08:33N 40°33' E 014°14'8 7.6
2014-Jul-25 07:33N 40°38' E 014°23'0 0.1
2014-Jul-25 06:25N 40°38' E 014°22'3 3.0
2014-Jul-25 05:33N 40°37' E 014°19'8 7.3
2014-Jul-25 04:24N 40°42' E 014°29'6 0.5
2014-Jul-24 15:33N 40°38' E 014°23'7 6.8
2014-Jul-24 14:33N 40°34' E 014°15'1 0.9
2014-Jul-24 13:33N 40°33' E 014°14'2 2.0
2014-Jul-24 12:34N 40°35' E 014°15'1 0.9
2014-Jul-24 11:33N 40°35' E 014°14'1 0.6
2014-Jul-24 10:33N 40°35' E 014°14'1 0.4
2014-Jul-24 07:22N 40°33' E 014°15'8 9.5
2014-Jul-24 06:33N 40°38' E 014°23'6 5.0
2014-Jul-24 05:25N 40°42' E 014°29'0 0.0
2014-Jul-23 15:15N 40°42' E 014°28'6 8.4
2014-Jul-23 14:33N 40°38' E 014°22'8 7.7
2014-Jul-23 13:34N 40°33' E 014°14'0 0.0
2014-Jul-23 12:33N 40°33' E 014°14'4 4.1
2014-Jul-23 11:31N 40°38' E 014°15'12 5.6
2014-Jul-23 09:21N 40°50' E 014°17'1618.0
2014-Jul-23 08:27N 40°33' E 014°14'8 8.7
2014-Jul-23 07:33N 40°38' E 014°23'0 0.2
2014-Jul-23 06:32N 40°38' E 014°23'2 2.2
2014-Jul-23 05:34N 40°38' E 014°20'8 7.2
2014-Jul-23 04:30N 40°42' E 014°29'3 0.3
2014-Jul-22 16:33N 40°41' E 014°24'8 2.8
2014-Jul-22 13:31N 40°36' E 014°15'13 6.6
2014-Jul-22 11:28N 40°50' E 014°17'1617.7
2014-Jul-22 10:33N 40°33' E 014°14'4 4.4
2014-Jul-22 09:33N 40°34' E 014°20'8 7.4
2014-Jul-22 08:30N 40°35' E 014°30'1212.4
2014-Jul-22 07:33N 40°34' E 014°15'13 8.9
2014-Jul-22 06:06N 40°42' E 014°29'0 0.0
2014-Jul-21 17:33N 40°42' E 014°28'1110.7
2014-Jul-21 16:34N 40°48' E 014°17'1514.8
2014-Jul-21 15:33N 40°33' E 014°14'1511.1
2014-Jul-21 14:10N 40°49' E 014°17'1422.1
2014-Jul-21 13:33N 40°35' E 014°15'2 1.8
2014-Jul-21 12:33N 40°33' E 014°14'3 3.0
2014-Jul-21 11:33N 40°36' E 014°16'1311.0
2014-Jul-21 10:21N 40°49' E 014°17'1619.4
2014-Jul-21 09:32N 40°33' E 014°14'0 0.1
2014-Jul-21 08:33N 40°33' E 014°14'7 7.3
2014-Jul-21 07:33N 40°38' E 014°22'1 0.8
2014-Jul-21 06:33N 40°38' E 014°23'4 3.6
2014-Jul-21 05:33N 40°36' E 014°18'9 7.7
2014-Jul-21 04:20N 40°42' E 014°29'3 0.2
2014-Jul-20 16:34N 40°41' E 014°25'9 9.0
2014-Jul-20 15:33N 40°34' E 014°17'10 8.1
2014-Jul-20 14:22N 40°37' E 014°29'1214.7
2014-Jul-20 13:33N 40°33' E 014°14'7 7.1
2014-Jul-20 12:33N 40°38' E 014°21'7 7.1
2014-Jul-20 11:33N 40°33' E 014°14'0 0.0
2014-Jul-20 10:32N 40°33' E 014°14'2 0.8
2014-Jul-20 08:03N 40°34' E 014°17'2 3.7
2014-Jul-20 07:32N 40°33' E 014°14'1413.8
2014-Jul-20 06:33N 40°42' E 014°28'0 0.0
2014-Jul-19 15:10N 40°42' E 014°29'6 9.6
2014-Jul-19 14:33N 40°38' E 014°23'7 7.4
2014-Jul-19 13:33N 40°34' E 014°15'1712.7
2014-Jul-19 12:15N 40°50' E 014°15'0 0.4
2014-Jul-19 11:29N 40°50' E 014°16'1718.2
2014-Jul-19 10:33N 40°33' E 014°14'0 0.0
2014-Jul-19 09:32N 40°33' E 014°14'0 0.0
2014-Jul-19 08:33N 40°33' E 014°14'8 7.6
2014-Jul-19 07:33N 40°38' E 014°23'0 0.0
2014-Jul-19 06:33N 40°38' E 014°23'3 3.0
2014-Jul-19 05:33N 40°37' E 014°19'9 8.7
2014-Jul-19 04:33N 40°42' E 014°29'1 0.1
2014-Jul-18 16:33N 40°42' E 014°27'1211.6
2014-Jul-18 15:33N 40°34' E 014°16'1 0.6
2014-Jul-18 13:33N 40°33' E 014°15'1712.6
2014-Jul-18 12:13N 40°50' E 014°15'1 0.8
2014-Jul-18 11:29N 40°50' E 014°16'1718.1
2014-Jul-18 10:33N 40°33' E 014°14'5 1.9
2014-Jul-18 08:08N 40°34' E 014°20'  

Dump ship's entire track history